FW1036 Weather Reports


Display with metric or nautical units.
time (UTC)temp
F
wind
direction
speed
MPH
gust
MPH
rain 1hr
in
rain 24hr
in
rain mn
in
humidity
%
barometer
mb
20260906181516 71 46 10.0 17.0 0.00 0.00 0.00 63 1018.4
20260906180009 70 46 12.0 17.0 0.00 0.00 0.00 67 1018.6
20260906174508 72 19 10.0 14.0 0.00 0.00 0.00 63 1018.8
20260906173007 71 69 10.0 16.0 0.00 0.00 0.00 64 1018.8
20260906171507 72 46 10.0 15.0 0.00 0.00 0.00 63 1018.8
20260906170015 72 38 12.0 16.0 0.00 0.00 0.00 64 1018.9
20260906164506 71 27 11.0 16.0 0.00 0.00 0.00 66 1018.7
20260906163001 71 31 7.0 15.0 0.00 0.00 0.00 66 1018.8
20260906161600 71 32 10.0 18.0 0.00 0.00 0.00 71 1018.9
20260906160108 70 34 11.0 16.0 0.00 0.00 0.00 72 1018.8
20260906154559 69 32 9.0 16.0 0.00 0.00 0.00 71 1018.7
20260906153052 71 5 9.0 16.0 0.00 0.00 0.00 73 1018.6
20260906151550 71 48 10.0 16.0 0.00 0.00 0.00 74 1018.5
20260906150055 70 49 12.0 16.0 0.00 0.00 0.00 74 1018.4
20260906144544 70 54 10.0 18.0 0.00 0.00 0.00 75 1018.3
20260906143044 69 15 8.0 15.0 0.00 0.00 0.00 76 1018.4
20260906141539 68 13 6.0 12.0 0.00 0.00 0.00 78 1018.3
20260906140037 68 29 11.0 15.0 0.00 0.00 0.00 77 1018.1
20260906134543 68 9 7.0 11.0 0.00 0.00 0.00 79 1018.1
20260906133048 67 40 7.0 11.0 0.00 0.00 0.00 82 1018.2
20260906131524 67 30 7.0 10.0 0.00 0.00 0.00 82 1018.1
20260906130020 66 360 4.0 6.0 0.00 0.00 0.00 84 1018.1
20260906124514 65 360 4.0 7.0 0.00 0.00 0.00 86 1018.0
20260906123017 64 27 3.0 5.0 0.00 0.00 0.00 87 1017.8
20260906121508 63 11 3.0 5.0 0.00 0.00 0.00 89 1017.7
20260906120004 62 5 1.0 4.0 0.00 0.00 0.00 90 1017.5
20260906114609 61 360 3.0 5.0 0.00 0.00 0.00 91 1017.3
20260906113056 60 9 3.0 5.0 0.00 0.00 0.00 92 1017.1
20260906111558 60 327 2.0 6.0 0.00 0.00 0.00 92 1017.0
20260906110053 57 11 2.0 4.0 0.00 0.00 0.00 91 1016.9
20260906104604 58 35 0.0 3.0 0.00 0.00 0.00 91 1016.8
20260906103049 58 343 1.0 4.0 0.00 0.00 0.00 91 1016.7
20260906101548 60 5 0.0 6.0 0.00 0.00 0.00 91 1016.7
20260906100046 60 12 3.0 6.0 0.00 0.00 0.00 91 1016.6
20260906094548 60 22 2.0 5.0 0.00 0.00 0.00 91 1016.6
20260906093058 60 21 3.0 6.0 0.00 0.00 0.00 92 1016.5
20260906091545 58 25 1.0 3.0 0.00 0.00 0.00 91 1016.5
20260906090043 59 360 1.0 4.0 0.00 0.00 0.00 91 1016.5
20260906084542 59 337 2.0 5.0 0.00 0.00 0.00 91 1016.5
20260906083044 59 334 0.0 3.0 0.00 0.00 0.00 91 1016.4
20260906081539 59 340 0.0 3.0 0.00 0.00 0.00 92 1016.3
20260906080040 58 329 0.0 2.0 0.00 0.00 0.00 91 1016.4
20260906074536 58 327 0.0 1.0 0.00 0.00 0.00 91 1016.4
20260906073036 59 327 0.0 2.0 0.00 0.00 0.00 91 1016.3
20260906071534 59 344 0.0 2.0 0.00 0.00 0.00 91 1016.2
20260906070032 60 311 1.0 2.0 0.00 0.00 0.00 91 1016.3
20260906064532 61 311 0.0 5.0 0.00 0.00 0.00 91 1016.2
20260906063030 61 9 2.0 5.0 0.00 0.00 0.00 91 1016.0
20260906061529 60 351 2.0 5.0 0.00 0.00 0.00 91 1015.8
20260906060031 59 317 0.0 2.0 0.00 0.00 0.00 90 1015.9
20260906054525 60 334 0.0 2.0 0.00 0.00 0.00 90 1015.8
20260906053024 61 328 1.0 5.0 0.00 0.00 0.00 90 1015.8
20260906051527 61 360 2.0 4.0 0.00 0.00 0.00 90 1015.8
20260906050023 61 10 3.0 5.0 0.00 0.00 0.00 90 1015.6
20260906044521 60 24 2.0 5.0 0.00 0.00 0.00 90 1015.5
20260906043016 60 5 3.0 6.0 0.00 0.00 0.00 89 1015.4
20260906041521 60 5 3.0 5.0 0.00 0.00 0.00 89 1015.4
20260906040012 60 5 2.0 8.0 0.00 0.00 0.00 88 1015.3
20260906034511 61 29 3.0 5.0 0.00 0.00 0.00 88 1015.2
20260906033011 61 360 4.0 6.0 0.00 0.00 0.00 87 1015.2
20260906031510 61 39 3.0 6.0 0.00 0.00 0.00 87 1015.3
20260906030010 61 350 2.0 6.0 0.00 0.00 0.00 86 1015.2
20260906024509 61 20 3.0 8.0 0.00 0.00 0.00 86 1015.1
20260906023018 61 5 4.0 8.0 0.00 0.00 0.00 85 1015.2
20260906021513 61 5 3.0 8.0 0.00 0.00 0.00 85 1015.3
20260906020009 61 360 3.0 6.0 0.00 0.00 0.00 84 1015.1
20260906014507 61 20 2.0 4.0 0.00 0.00 0.00 83 1015.3
20260906013005 61 355 2.0 6.0 0.00 0.00 0.00 83 1015.3
20260906011503 61 5 2.0 4.0 0.00 0.00 0.00 83 1015.1
20260906010002 61 344 2.0 6.0 0.00 0.00 0.00 82 1014.8
20260906004600 62 355 3.0 6.0 0.00 0.00 0.00 81 1014.8
20260906003059 62 15 2.0 9.0 0.00 0.00 0.00 79 1015.2
20260906001559 63 5 3.0 6.0 0.00 0.00 0.00 78 1015.0
20260906000058 64 341 1.0 8.0 0.00 0.00 0.00 76 1015.0
20260905234611 64 360 2.0 10.0 0.00 0.00 0.00 75 1014.9
20260905233056 65 345 3.0 11.0 0.00 0.00 0.00 73 1014.9
20260905231556 66 338 6.0 12.0 0.00 0.00 0.00 70 1014.9
20260905230123 66 12 6.0 14.0 0.00 0.00 0.00 70 1014.8
20260905224554 67 5 7.0 13.0 0.00 0.00 0.00 71 1014.9
20260905223054 68 30 10.0 15.0 0.00 0.00 0.00 70 1014.8
20260905221557 68 41 8.0 14.0 0.00 0.00 0.00 68 1014.7
20260905220053 69 26 7.0 12.0 0.00 0.00 0.00 67 1014.6
20260905214552 69 31 10.0 16.0 0.00 0.00 0.00 66 1014.6
20260905213051 69 38 10.0 16.0 0.00 0.00 0.00 67 1014.5
20260905211556 70 360 9.0 14.0 0.00 0.00 0.00 70 1014.6
20260905210049 70 30 10.0 15.0 0.00 0.00 0.00 69 1014.8
20260905204548 71 36 11.0 15.0 0.00 0.00 0.00 67 1014.7
20260905203055 71 27 10.0 16.0 0.00 0.00 0.00 66 1014.7
20260905201548 71 47 11.0 15.0 0.00 0.00 0.00 67 1014.6
20260905200050 72 42 11.0 15.0 0.00 0.00 0.00 67 1014.5
20260905194546 72 45 12.0 16.0 0.00 0.00 0.00 65 1014.5
20260905193104 72 57 9.0 13.0 0.00 0.00 0.00 68 1014.6
20260905191545 72 61 11.0 15.0 0.00 0.00 0.00 66 1014.6
20260905190045 72 51 10.0 16.0 0.00 0.00 0.00 67 1014.7
20260905184544 72 5 10.0 17.0 0.00 0.00 0.00 67 1014.7
20260905183046 72 65 10.0 15.0 0.00 0.00 0.00 68 1014.7